Погода в Алате

Погода в Алате : погода сейчас, прогноз погоды и архив. Всё, что Вы хотите узнать о погоде в Алате!

Поиск расширенной информации на нашем сайте:

Другие новости

Новости СМИ2

Главная страница сайта

Новости сайта

02.10.2013

Напоминаем, что на нашем новом сайте вы можете получить высокодетализированные прогнозы погоды по пунктам России, СНГ и мира (включающие важные для авиации метеовеличины, такие как направление и скорость ветра, видимость, явления погоды, количество и форма облачности, нижняя и верхняя граница облачности), а также ознакомиться с разнообразными материалами по авиационной метеорологии и подборкой полезных ссылок на эту тему.

Сайт Метеоцентр.Азия посвящён разработке технологий оптимизации авиаметеорологического обслуживания, включая проектирование и перспективное создание нескольких автоматизированных авиаметеорологических систем:
- система выпуска высокодетальных прогностических карт явлений погоды для нижнего воздушного пространства по России и ближнему зарубежью;
- система верификации прогнозов TAF (выпускаемых синоптиками официальных АМСГ РФ и ближнего зарубежья) и AUTOTAF (выпускаемых сайтом Метеоцентр.Азия) - выявление ошибок, онлайн-сопоставление с фактической погодой METAR, автоматическое внесение коррективов в прогнозы при резком отклонении фактической погоды от прогноза, подсчёт оправдываемости прогнозов по элементам и в целом;
- система обработки, анализа и отображения авиаметеорологической информации для применения провайдерами метеорологической информации.

Рекомендуем: Подробности разливной лимонад оптом на нашем сайте.

Погода в Алате - сегодня

Время (UTC), дата Ветер
(°,м/с) 
Видим.   Явления Облачность Т
(°С)
Тd
(°С)
f(%) Тe
(°С)
Pmin
(гПа)
dP
(гПа)
Po
(мм)
O2
(г/м3)
Тmin Tmax R s Состояние
почвы
12 25.02.17 180 (Ю) 10 км    ясно 
+19.9 +1.5 29 +20  1018.5  -2.5  765  287           
15 25.02.17 тихо ()   4000 м    ясно 
+10.7 +3.4 61 +11  1018.2  -0.3  765  296           
18 25.02.17 160 (Ю) 4000 м    ясно 
+8.8 +2.9 66 +8  1017.9  -0.3  765  298    +20.5       
21 25.02.17 180 (Ю) 4000 м    ясно 
+9.6 +2.3 60 +9  1016.2  -1.7  764  297           
00 26.02.17 160 (Ю) 4000 м    ясно 
+8 -0.7 54 +6  1013.8  -2.4  762  298           
03 26.02.17 180 (Ю) 10  4000 м    ясно 
+10.4 -2.7 40 +8  1012.6  -1.2  761  296           
06 26.02.17 180 (Ю) 10  10 км    ясно 
+12 -2.5 36 +10  1014.5  1.9  762  295           
09 26.02.17 270 (З) 10 км    ясно 
+16.7 -0.5 31 +16  1018.1  3.5  765  291           
12 26.02.17 320 (СЗ) 16-18{18}  10 км    10/0 средняя 
[As op]
+9 -1.4 48 +5  1019.2  1.1  766  299           
15 26.02.17 340 (С) 18-22{22}  4000 м    9/9 600 м 
[Sc]
+6.4 -1.7 56 +2  1023  4.8  769  303    -1.4       
18 26.02.17 340 (С) 18-24{24}  4000 м    ясно 
+5 -1.2 64 1027  4.1  772  306    +17.5       
21 26.02.17 340 (С) 16-20{20}  4000 м    ясно 
+4.6 -1.8 63 1028.7  1.7  773  307           
00 27.02.17 340 (С) 4000 м    10/0 средняя 
[Ac As]
+3.5 -1.6 69 +1  1030.9  2.2  775  308           
03 27.02.17 тихо ()   4000 м    9/0 средняя 
[Ac As]
+3.7 -2.2 65 +4  1032.2  1.3  776  309           
06 27.02.17 тихо ()   10 км    9/0 верхняя 
[Cs]
+6.6 -1.4 57 +7  1032.9  0.6  776  306           
09 27.02.17 110 (В) 10 км    10/10 600 м 
[Sc]
+6.7 +0 62 +7  1028.8  -4.1  773  304           
12 27.02.17 070 (В) 10 км    10/10 600 м 
[Sc]
+7.5 +1.9 68 +7  1025.9  -2.9  771  302           
15 27.02.17 110 (В) 4000 м    10/10 600 м 
[Sc]
+7.4 +2.9 73 +6  1024.5  -1.4  770  302           
18 27.02.17 160 (Ю) 4000 м    10/10 600 м 
[Sc]
+6.6 +3.3 79 +5  1024.2  -0.3  770  302    +8       
21 27.02.17 тихо ()   4000 м    ясно 
+5.5 +3.6 88 +6  1023.4  -0.8  769  303           
00 28.02.17 тихо ()   4000 м    ясно 
+5.5 +3.8 89 +6  1022.8  -0.6  769  303           
03 28.02.17 тихо ()   4000 м    6/6 600 м 
[Sc]
+3.1 +0.7 84 +3  1023.7  769  306           
06 28.02.17 320 (СЗ) 10 км    6/6 600 м 
[Cu med, cong]
+6.6 +0.5 65 +6  1026.1  3.6  771  303           
09 28.02.17 020 (С) 10 км    4/4 600 м 
[Cu med, cong]
+9.7 +3.8 67 +10  1026.1  771  299           
12 28.02.17 070 (В) 10 км    3/0 верхняя 
[Ci fib]
+9.2 +3.8 69 +8  1025.5  -0.6  771  300           
Время (UTC), дата Ветер
(°,м/с) 
Видим.   Явления Облачность Т
(°С)
Тd
(°С)
f(%) Тe
(°С)
Pmin
(гПа)
dP
(гПа)
Po
(мм)
O2
(г/м3)
Тmin Tmax R s Состояние
почвы

Для получения пояснительной информации подведите курсор к названию столбца.

ПОГОДА в Алате - архив

Всё, что Вы хотите узнать о погоде в Алате - удобно и подробно!

Выберите нужную дату (начиная с 1 января 2015* года) и нажмите кнопку "Найти".
Будут отображены архивные сводки погоды по пункту Алат, начиная с указанной даты.


Отображать данные в формате CSV (для использования в таблицах Excel)


Внимание! Наш архив погоды предназначен исключительно для личного некоммерческого использования в познавательных целях. Если Вам необходимы официальные справки о состоянии погоды (для производственных, юридических, коммерческих и т.п. целей), обращайтесь в органы Росгидромета.

*Примечание: данная дата относится к архиву по метеостанциям СССР (Россия, СНГ, Балтия).
Архив по метеостанциям Зарубежной Европы и Азии (кроме Китая) хранится 10 дней, по другим регионам земного шара (Китай, Африка, Америка, Австралия, Океания) - 1 день.

Алат - район местоположения метеостанции


Название, широта, долгота, высота метеостанции:
Алат 40°ш. 49.4°д. -16 м над ур. моря [Азербайджан]

Дополнительная информация

В oтличие oт бoльшинства пoгoдных сайтoв мы публикуем пoдрoбную метеoинфoрмацию в детальнoм прoфессиoнальнoм фoрмате.

Характеристики температуры и влажнoсти вoздуха измеряются на высoте 2 м в тени вдали oт зданий и деревьев.
Скoрoсть ветра измеряется на высoте 10 м (на урoвне рoста челoвека скoрoсть ветра ниже в 1.5-2 раза). Если метеoстанция нахoдится в гoрoде или в лесу, тo скoрoсть ветра занижена на 2-4 м/с пo сравнению с oткрытым местoм. Скoрoсть ветра над акватoриями крупных рек и oзёр, а также на вершинах хoлмoв на 2-5 м/с выше, чем в oбычных услoвиях.
Атмoсфернoе давление в разных тoчках местнoсти мoжет значительнo oтличаться oт давления на метеoстанции, в зависимoсти oт услoвий рельефа (при пoдъёме на 10 м давление пoнижается примернo на 1 мм рт.ст.).